OCN3VU EDDM-LGIR

Flight info

Callsign OCN3VU
Flight time N/A
Altitude 35000
Route VAVOR3Q VAVOR M867 RADIZ DCT REKTI DCT NEMEK DCT ELTIB DCT PINDO DCT KEA UL607 GIVIS T514 XAVIS
Aircraft A320/M-SDE3FGHIRWY/LB1

Departure

Time 2026-05-06 14:13
Airport Munich Airport (EDDM)

Arrival

Time N/A
Airport Heraklion International Nikos Kazantzakis Airport (LGIR)
Time Latitude Longitude Altitude Speed Heading
2026-05-06 13:34 48.35082 11.80928 1476 ft 0 kts 173°
2026-05-06 13:58 48.35090 11.80927 1473 ft 4 kts 173°
2026-05-06 13:59 48.35116 11.80922 1478 ft 4 kts 173°
2026-05-06 13:59 48.35139 11.80918 1479 ft 3 kts 174°
2026-05-06 13:59 48.35162 11.80921 1473 ft 4 kts 218°
2026-05-06 13:59 48.35173 11.80947 1472 ft 3 kts 263°
2026-05-06 14:00 48.35175 11.80975 1485 ft 0 kts 263°
2026-05-06 14:03 48.35175 11.80972 1485 ft 3 kts 263°
2026-05-06 14:03 48.35168 11.80877 1479 ft 14 kts 264°
2026-05-06 14:03 48.35158 11.80736 1485 ft 13 kts 263°
2026-05-06 14:03 48.35149 11.80615 1485 ft 11 kts 263°
2026-05-06 14:04 48.35140 11.80514 1479 ft 9 kts 262°
2026-05-06 14:04 48.35130 11.80389 1482 ft 16 kts 263°
2026-05-06 14:04 48.35110 11.80207 1481 ft 18 kts 263°
2026-05-06 14:04 48.35097 11.80034 1477 ft 16 kts 263°
2026-05-06 14:05 48.35085 11.79876 1475 ft 14 kts 263°
2026-05-06 14:05 48.35074 11.79739 1485 ft 12 kts 263°
2026-05-06 14:05 48.35066 11.79624 1485 ft 10 kts 263°
2026-05-06 14:05 48.35012 11.79529 1477 ft 14 kts 178°
2026-05-06 14:06 48.34920 11.79545 1485 ft 12 kts 173°
2026-05-06 14:06 48.34841 11.79559 1476 ft 11 kts 174°
2026-05-06 14:06 48.34780 11.79487 1476 ft 18 kts 268°
2026-05-06 14:06 48.34769 11.79278 1482 ft 21 kts 263°
2026-05-06 14:07 48.34753 11.79064 1485 ft 21 kts 264°
2026-05-06 14:07 48.34737 11.78850 1476 ft 21 kts 262°
2026-05-06 14:07 48.34720 11.78631 1477 ft 21 kts 264°
2026-05-06 14:07 48.34703 11.78403 1485 ft 22 kts 263°
2026-05-06 14:08 48.34686 11.78167 1482 ft 23 kts 263°
2026-05-06 14:08 48.34666 11.77922 1477 ft 24 kts 263°
2026-05-06 14:08 48.34646 11.77669 1478 ft 25 kts 263°
2026-05-06 14:08 48.34626 11.77408 1485 ft 26 kts 263°
2026-05-06 14:09 48.34605 11.77138 1485 ft 26 kts 263°
2026-05-06 14:09 48.34584 11.76860 1481 ft 27 kts 263°
2026-05-06 14:09 48.34562 11.76574 1476 ft 28 kts 263°
2026-05-06 14:09 48.34540 11.76278 1485 ft 28 kts 264°
2026-05-06 14:10 48.34516 11.75980 1485 ft 29 kts 263°
2026-05-06 14:10 48.34493 11.75675 1478 ft 30 kts 263°
2026-05-06 14:10 48.34469 11.75371 1485 ft 24 kts 263°
2026-05-06 14:10 48.34430 11.75212 1483 ft 14 kts 199°
2026-05-06 14:11 48.34341 11.75227 1475 ft 12 kts 172°
2026-05-06 14:11 48.34264 11.75243 1477 ft 12 kts 173°
2026-05-06 14:11 48.34143 11.75265 1477 ft 19 kts 173°
2026-05-06 14:11 48.34085 11.75319 1485 ft 8 kts 96°
2026-05-06 14:12 48.34091 11.75391 1485 ft 6 kts 83°
2026-05-06 14:12 48.34093 11.75419 1483 ft 0 kts 83°
2026-05-06 14:12 48.34093 11.75421 1478 ft 2 kts 83°
2026-05-06 14:12 48.34105 11.75573 1485 ft 41 kts 83°
2026-05-06 14:13 48.34164 11.76351 1477 ft 106 kts 84°
2026-05-06 14:13 48.34274 11.77743 1481 ft 156 kts 83°
2026-05-06 14:13 48.34402 11.79529 1725 ft 178 kts 83°
2026-05-06 14:13 48.34535 11.81389 2442 ft 180 kts 83°
2026-05-06 14:14 48.34683 11.83256 3081 ft 184 kts 83°
2026-05-06 14:14 48.34839 11.85259 3394 ft 201 kts 84°
2026-05-06 14:14 48.34999 11.87402 3902 ft 205 kts 83°
2026-05-06 14:14 48.35164 11.89592 4294 ft 218 kts 84°
2026-05-06 14:15 48.35345 11.91968 4628 ft 239 kts 84°
2026-05-06 14:15 48.35385 11.94479 5319 ft 243 kts 105°
2026-05-06 14:15 48.34579 11.96676 6086 ft 244 kts 138°
2026-05-06 14:15 48.33256 11.98303 6859 ft 248 kts 143°
2026-05-06 14:16 48.31877 11.99910 7600 ft 251 kts 144°
2026-05-06 14:16 48.30495 12.01458 8387 ft 253 kts 152°
2026-05-06 14:16 48.28884 12.02474 9167 ft 253 kts 169°
2026-05-06 14:16 48.27078 12.02691 9596 ft 268 kts 185°
2026-05-06 14:17 48.25192 12.02546 10245 ft 274 kts 185°
2026-05-06 14:17 48.23276 12.02414 10974 ft 277 kts 185°
2026-05-06 14:17 48.21339 12.02294 11723 ft 280 kts 185°
2026-05-06 14:17 48.19384 12.02182 12480 ft 282 kts 185°
2026-05-06 14:18 48.17411 12.02069 13208 ft 285 kts 185°
2026-05-06 14:18 48.15417 12.02034 13889 ft 290 kts 178°
2026-05-06 14:18 48.13427 12.02650 14532 ft 297 kts 165°
2026-05-06 14:18 48.11514 12.03856 15271 ft 298 kts 162°
2026-05-06 14:19 48.09585 12.05105 15963 ft 299 kts 162°
2026-05-06 14:19 48.07695 12.06319 16616 ft 300 kts 162°
2026-05-06 14:19 48.05766 12.07555 17280 ft 302 kts 162°
2026-05-06 14:19 48.03826 12.08800 17934 ft 304 kts 162°
2026-05-06 14:20 48.01873 12.10050 18498 ft 306 kts 163°
2026-05-06 14:20 47.99907 12.11302 19020 ft 309 kts 163°
2026-05-06 14:20 47.97919 12.12563 19555 ft 311 kts 163°
2026-05-06 14:20 47.95918 12.13836 20080 ft 314 kts 163°
2026-05-06 14:21 47.93913 12.15189 20607 ft 320 kts 157°
2026-05-06 14:21 47.92041 12.17123 20910 ft 338 kts 147°
2026-05-06 14:21 47.90203 12.19430 21043 ft 352 kts 147°
2026-05-06 14:21 47.88291 12.21839 21168 ft 366 kts 146°
2026-05-06 14:22 47.86985 12.23485 21265 ft 375 kts 146°
2026-05-06 14:22 47.84965 12.26030 21398 ft 387 kts 146°
2026-05-06 14:22 47.82875 12.28658 21529 ft 398 kts 146°
2026-05-06 14:22 47.80722 12.31360 21660 ft 409 kts 146°
2026-05-06 14:23 47.78524 12.34114 21857 ft 417 kts 146°
2026-05-06 14:23 47.76295 12.36906 22180 ft 421 kts 146°
2026-05-06 14:23 47.74041 12.39722 22465 ft 425 kts 146°
2026-05-06 14:23 47.71772 12.42556 22842 ft 427 kts 146°
2026-05-06 14:24 47.69489 12.45400 23192 ft 430 kts 146°
2026-05-06 14:24 47.67183 12.48256 23526 ft 433 kts 146°
2026-05-06 14:24 47.64863 12.51117 23831 ft 435 kts 147°
2026-05-06 14:24 47.62526 12.53988 24159 ft 437 kts 146°
2026-05-06 14:25 47.60202 12.56929 24496 ft 440 kts 145°
2026-05-06 14:25 47.57911 12.59959 24833 ft 443 kts 144°
2026-05-06 14:25 47.55628 12.63054 25066 ft 446 kts 144°
2026-05-06 14:25 47.53341 12.66180 25288 ft 449 kts 144°
2026-05-06 14:26 47.51035 12.69320 25530 ft 451 kts 144°
2026-05-06 14:26 47.48710 12.72455 25762 ft 453 kts 144°
2026-05-06 14:26 47.46364 12.75589 25991 ft 456 kts 145°
2026-05-06 14:26 47.44000 12.78727 26300 ft 457 kts 145°
2026-05-06 14:27 47.41626 12.81867 26531 ft 459 kts 145°
2026-05-06 14:27 47.39238 12.85019 26832 ft 461 kts 145°
2026-05-06 14:27 47.36852 12.88170 27079 ft 462 kts 145°
2026-05-06 14:27 47.34445 12.91345 27346 ft 463 kts 145°
2026-05-06 14:28 47.32049 12.94508 27751 ft 462 kts 146°
2026-05-06 14:28 47.29659 12.97659 28118 ft 461 kts 145°
2026-05-06 14:28 47.27270 13.00808 28539 ft 459 kts 145°
2026-05-06 14:28 47.24891 13.03941 28788 ft 458 kts 146°
2026-05-06 14:29 47.22509 13.07069 28979 ft 458 kts 146°
2026-05-06 14:29 47.20128 13.10192 29262 ft 458 kts 146°
2026-05-06 14:29 47.17749 13.13313 29585 ft 458 kts 146°
2026-05-06 14:29 47.15378 13.16419 29998 ft 457 kts 146°
2026-05-06 14:30 47.13007 13.19520 30373 ft 455 kts 146°
2026-05-06 14:30 47.10641 13.22609 30787 ft 454 kts 146°
2026-05-06 14:30 47.08282 13.25683 31112 ft 453 kts 146°
2026-05-06 14:30 47.05911 13.28767 31415 ft 452 kts 146°
2026-05-06 14:31 47.03574 13.31800 31729 ft 452 kts 146°
2026-05-06 14:31 47.01252 13.34811 32078 ft 450 kts 146°
2026-05-06 14:31 46.98911 13.37851 32326 ft 450 kts 146°
2026-05-06 14:31 46.96572 13.40885 32614 ft 448 kts 146°
2026-05-06 14:32 46.94242 13.43903 32822 ft 447 kts 146°
2026-05-06 14:32 46.91875 13.46966 33145 ft 448 kts 146°
2026-05-06 14:32 46.89540 13.49981 33497 ft 446 kts 146°
2026-05-06 14:32 46.87213 13.52978 33787 ft 446 kts 146°
2026-05-06 14:33 46.84889 13.55966 34058 ft 445 kts 146°
2026-05-06 14:33 46.82559 13.58956 34285 ft 446 kts 146°
2026-05-06 14:33 46.80221 13.61954 34539 ft 447 kts 146°
2026-05-06 14:33 46.77909 13.64918 34782 ft 448 kts 145°
2026-05-06 14:34 46.73184 13.70970 34883 ft 451 kts 145°
2026-05-06 14:34 46.68460 13.77005 34882 ft 452 kts 145°
2026-05-06 14:35 46.63730 13.83042 34883 ft 452 kts 146°
2026-05-06 14:35 46.59004 13.89051 34885 ft 451 kts 145°
2026-05-06 14:36 46.54424 13.95186 34880 ft 454 kts 142°
2026-05-06 14:36 46.49951 14.01674 34889 ft 455 kts 141°
2026-05-06 14:37 46.45483 14.08175 34893 ft 454 kts 141°
2026-05-06 14:37 46.40968 14.14585 34907 ft 454 kts 142°
2026-05-06 14:38 46.36438 14.20939 34908 ft 453 kts 142°
2026-05-06 14:38 46.31919 14.27275 34932 ft 452 kts 141°
2026-05-06 14:39 46.27404 14.33605 34944 ft 452 kts 142°
2026-05-06 14:39 46.22891 14.39922 34950 ft 452 kts 142°
2026-05-06 14:40 46.18365 14.46228 34949 ft 451 kts 142°
2026-05-06 14:40 46.13850 14.52528 34932 ft 451 kts 142°
2026-05-06 14:41 46.09333 14.58811 34933 ft 451 kts 142°
2026-05-06 14:41 46.04809 14.65078 34935 ft 451 kts 142°
2026-05-06 14:42 46.00286 14.71329 34933 ft 450 kts 142°
2026-05-06 14:42 45.95757 14.77577 34938 ft 450 kts 142°
2026-05-06 14:43 45.91235 14.83799 34933 ft 450 kts 142°
2026-05-06 14:43 45.86714 14.90000 34939 ft 450 kts 142°
2026-05-06 14:44 45.82185 14.96199 34937 ft 449 kts 142°
2026-05-06 14:45 45.75405 15.05466 34936 ft 449 kts 142°
2026-05-06 14:45 45.70906 15.11587 34906 ft 449 kts 142°
2026-05-06 14:46 45.66371 15.17742 34914 ft 450 kts 142°
2026-05-06 14:46 45.61803 15.23931 34918 ft 450 kts 142°
2026-05-06 14:47 45.57283 15.30039 34921 ft 450 kts 142°
2026-05-06 14:47 45.52620 15.35953 34923 ft 448 kts 145°
2026-05-06 14:48 45.47846 15.41681 34916 ft 448 kts 145°
2026-05-06 14:48 45.43075 15.47425 34919 ft 449 kts 145°
2026-05-06 14:49 45.38333 15.53219 34920 ft 450 kts 144°
2026-05-06 14:49 45.33584 15.59031 34922 ft 450 kts 144°
2026-05-06 14:50 45.28829 15.64825 34906 ft 450 kts 145°
2026-05-06 14:50 45.24072 15.70599 34925 ft 449 kts 145°
2026-05-06 14:51 45.19319 15.76354 34939 ft 449 kts 145°
2026-05-06 14:51 45.14565 15.82083 34937 ft 448 kts 145°
2026-05-06 14:52 45.09822 15.87791 34944 ft 448 kts 145°
2026-05-06 14:52 45.05077 15.93493 34919 ft 447 kts 145°
2026-05-06 14:53 45.00336 15.99178 34932 ft 447 kts 145°
2026-05-06 14:53 44.95590 16.04852 34936 ft 447 kts 145°
2026-05-06 14:54 44.90846 16.10512 34946 ft 447 kts 145°
2026-05-06 14:54 44.86098 16.16169 34941 ft 446 kts 145°
2026-05-06 14:55 44.81344 16.21812 34920 ft 448 kts 144°
2026-05-06 14:55 44.76572 16.27485 34925 ft 449 kts 145°
2026-05-06 14:56 44.72572 16.32225 34933 ft 449 kts 145°
2026-05-06 14:56 44.67786 16.37880 34935 ft 449 kts 145°
2026-05-06 14:57 44.63026 16.43486 34942 ft 449 kts 145°
2026-05-06 14:57 44.58219 16.49126 34914 ft 451 kts 145°
2026-05-06 14:58 44.53396 16.54779 34928 ft 452 kts 145°
2026-05-06 14:58 44.48558 16.60439 34931 ft 453 kts 145°
2026-05-06 14:59 44.43714 16.66093 34954 ft 454 kts 145°
2026-05-06 14:59 44.38859 16.71752 34937 ft 454 kts 145°
2026-05-06 15:00 44.34005 16.77408 34956 ft 454 kts 145°
2026-05-06 15:00 44.29154 16.83042 34959 ft 455 kts 146°
2026-05-06 15:01 44.24289 16.88733 34972 ft 455 kts 145°
2026-05-06 15:01 44.19440 16.94422 34978 ft 456 kts 145°
2026-05-06 15:02 44.14587 17.00104 34969 ft 455 kts 145°
2026-05-06 15:02 44.09698 17.05816 34976 ft 456 kts 145°
2026-05-06 15:03 44.04830 17.11475 34986 ft 456 kts 146°
2026-05-06 15:03 43.99984 17.17086 34999 ft 456 kts 146°
2026-05-06 15:04 43.95073 17.22764 34981 ft 457 kts 145°
2026-05-06 15:04 43.90189 17.28411 35007 ft 457 kts 145°
2026-05-06 15:05 43.85335 17.34009 34997 ft 457 kts 145°
2026-05-06 15:05 43.80432 17.39646 35008 ft 458 kts 145°
2026-05-06 15:06 43.75521 17.45272 35000 ft 458 kts 145°
2026-05-06 15:06 43.70604 17.50907 34997 ft 460 kts 145°
2026-05-06 15:07 43.65668 17.56543 35001 ft 461 kts 145°
2026-05-06 15:07 43.60717 17.62192 34991 ft 462 kts 144°
2026-05-06 15:08 43.55723 17.67879 34996 ft 463 kts 144°
2026-05-06 15:08 43.50772 17.73508 35000 ft 464 kts 144°
2026-05-06 15:09 43.45751 17.79189 35002 ft 465 kts 144°
2026-05-06 15:09 43.40747 17.84823 35036 ft 465 kts 144°
2026-05-06 15:10 43.35779 17.90430 35042 ft 465 kts 144°
2026-05-06 15:10 43.30776 17.96070 35045 ft 465 kts 144°
2026-05-06 15:11 43.25759 18.01695 35046 ft 465 kts 144°
2026-05-06 15:11 43.20741 18.07302 35042 ft 465 kts 144°
2026-05-06 15:12 43.15726 18.12912 35027 ft 465 kts 144°
2026-05-06 15:12 43.10697 18.18519 35028 ft 466 kts 144°
2026-05-06 15:13 43.05659 18.24124 35033 ft 467 kts 144°
2026-05-06 15:13 43.00625 18.29722 35036 ft 467 kts 144°
2026-05-06 15:14 42.95574 18.35319 35043 ft 467 kts 144°
2026-05-06 15:14 42.90514 18.40905 35032 ft 468 kts 144°
2026-05-06 15:15 42.85451 18.46487 35038 ft 468 kts 144°
2026-05-06 15:15 42.80387 18.52062 35044 ft 468 kts 144°
2026-05-06 15:16 42.75352 18.57599 35056 ft 468 kts 145°
2026-05-06 15:16 42.70273 18.63165 35059 ft 468 kts 145°
2026-05-06 15:17 42.65195 18.68710 35057 ft 468 kts 144°
2026-05-06 15:17 42.60113 18.74253 35062 ft 469 kts 144°
2026-05-06 15:18 42.55018 18.79796 35070 ft 469 kts 145°
2026-05-06 15:18 42.49921 18.85341 35075 ft 470 kts 145°
2026-05-06 15:19 42.44819 18.90878 35077 ft 470 kts 145°
2026-05-06 15:19 42.39709 18.96402 35067 ft 470 kts 145°
2026-05-06 15:20 42.34597 19.01914 35072 ft 470 kts 145°
2026-05-06 15:20 42.29485 19.07420 35078 ft 470 kts 145°
2026-05-06 15:21 42.24361 19.12928 35081 ft 470 kts 145°
2026-05-06 15:21 42.19239 19.18432 35067 ft 470 kts 145°
2026-05-06 15:22 42.14111 19.23917 35074 ft 470 kts 145°
2026-05-06 15:22 42.08981 19.29384 35081 ft 470 kts 145°
2026-05-06 15:23 42.03849 19.34854 35076 ft 470 kts 145°
2026-05-06 15:23 41.98720 19.40317 35080 ft 470 kts 145°
2026-05-06 15:24 41.93615 19.45727 35074 ft 471 kts 146°
2026-05-06 15:24 41.88466 19.51177 35070 ft 472 kts 146°
2026-05-06 15:25 41.83307 19.56625 35075 ft 472 kts 146°
2026-05-06 15:25 41.78136 19.62069 35078 ft 473 kts 146°
2026-05-06 15:26 41.72964 19.67518 35079 ft 473 kts 146°
2026-05-06 15:26 41.67788 19.72966 35073 ft 473 kts 146°
2026-05-06 15:27 41.62600 19.78401 35068 ft 473 kts 146°
2026-05-06 15:27 41.57409 19.83826 35074 ft 474 kts 145°
2026-05-06 15:28 41.52214 19.89245 35078 ft 474 kts 145°
2026-05-06 15:28 41.47011 19.94662 35073 ft 474 kts 145°
2026-05-06 15:29 41.41810 20.00077 35072 ft 475 kts 145°
2026-05-06 15:29 41.36601 20.05480 35069 ft 474 kts 146°
2026-05-06 15:30 41.31388 20.10866 35071 ft 474 kts 146°
2026-05-06 15:30 41.26176 20.16248 35073 ft 474 kts 145°
2026-05-06 15:31 41.20962 20.21620 35076 ft 474 kts 145°
2026-05-06 15:31 41.15753 20.26982 35071 ft 474 kts 145°
2026-05-06 15:32 41.07927 20.35007 35071 ft 474 kts 145°
2026-05-06 15:32 41.02707 20.40334 35071 ft 474 kts 145°
2026-05-06 15:33 40.97486 20.45669 35071 ft 474 kts 145°
2026-05-06 15:33 40.93115 20.50138 35070 ft 474 kts 145°
2026-05-06 15:34 40.87918 20.55421 35063 ft 474 kts 145°
2026-05-06 15:34 40.82680 20.60727 35056 ft 474 kts 145°
2026-05-06 15:35 40.77436 20.66026 35064 ft 475 kts 145°
2026-05-06 15:35 40.72199 20.71330 35065 ft 475 kts 145°
2026-05-06 15:36 40.66949 20.76635 35055 ft 475 kts 145°
2026-05-06 15:36 40.61694 20.81919 35051 ft 475 kts 145°
2026-05-06 15:37 40.56432 20.87203 35050 ft 476 kts 145°
2026-05-06 15:37 40.51129 20.92523 35043 ft 476 kts 145°
2026-05-06 15:38 40.46044 20.98042 35047 ft 479 kts 139°
2026-05-06 15:38 40.41145 21.03973 35035 ft 479 kts 140°
2026-05-06 15:39 40.36241 21.09896 35046 ft 480 kts 140°
2026-05-06 15:39 40.31327 21.15817 35034 ft 480 kts 140°
2026-05-06 15:40 40.26369 21.21778 35029 ft 480 kts 140°
2026-05-06 15:40 40.21443 21.27686 35028 ft 480 kts 140°
2026-05-06 15:41 40.16518 21.33586 35029 ft 480 kts 140°
2026-05-06 15:41 40.11583 21.39494 35030 ft 481 kts 140°
2026-05-06 15:42 40.06676 21.45346 35023 ft 481 kts 140°
2026-05-06 15:42 40.01726 21.51233 35027 ft 481 kts 140°
2026-05-06 15:43 39.96772 21.57117 35029 ft 482 kts 140°
2026-05-06 15:43 39.91816 21.62994 35031 ft 482 kts 140°
2026-05-06 15:44 39.86858 21.68862 35026 ft 482 kts 140°
2026-05-06 15:44 39.81889 21.74723 35033 ft 482 kts 140°
2026-05-06 15:45 39.76889 21.80613 35022 ft 482 kts 140°
2026-05-06 15:45 39.71920 21.86454 35016 ft 482 kts 140°
2026-05-06 15:46 39.66950 21.92286 35021 ft 482 kts 140°
2026-05-06 15:46 39.61973 21.98108 35004 ft 482 kts 140°
2026-05-06 15:47 39.56992 22.03928 35005 ft 482 kts 140°
2026-05-06 15:47 39.52011 22.09751 35010 ft 482 kts 140°
2026-05-06 15:48 39.47020 22.15556 35012 ft 482 kts 140°
2026-05-06 15:48 39.42011 22.21369 35015 ft 483 kts 140°
2026-05-06 15:49 39.37008 22.27166 35012 ft 483 kts 140°
2026-05-06 15:49 39.31996 22.32962 35009 ft 483 kts 140°
2026-05-06 15:50 39.26979 22.38754 35013 ft 484 kts 140°
2026-05-06 15:50 39.21965 22.44533 35016 ft 484 kts 140°
2026-05-06 15:51 39.16943 22.50308 35027 ft 484 kts 140°
2026-05-06 15:51 39.11924 22.56080 35029 ft 484 kts 140°
2026-05-06 15:52 39.06885 22.61843 35022 ft 484 kts 140°
2026-05-06 15:52 39.01860 22.67587 35027 ft 483 kts 140°